Regional Weather Roundup
Issued by NWS

Home | Current Version | Previous Version | Text Only | Print | Product List | Glossary On
Versions: 1 2 3 4 5 6 7 8 9 10 11 12 13 14 15 16 17 18 19 20 21 22 23 24 25 26 27 28 29 30 31 32 33 34 35 36 37 38 39 40 41 42 43 44 45 46 47 48 49 50
000
ASUS43 KLSX 222259
RWRMO

WEATHER SUMMARY FOR MISSOURI
NATIONAL WEATHER SERVICE SPRINGFIELD MO
600 PM CDT TUE APR 22 2014

NOTE: "FAIR" INDICATES FEW OR NO CLOUDS BELOW 12,000 FEET WITH NO
       SIGNIFICANT WEATHER AND/OR OBSTRUCTIONS TO VISIBILITY.
       CURRENT SKY AND/OR WEATHER CONDITIONS ARE NOT AVAILABLE FOR
       CHILLICOTHE AND FARMINGTON.

MOZ001>031-035>038-043-044-053-054-230000-
...NORTHERN AND WESTERN MISSOURI...

CITY           SKY/WX    TMP DP  RH WIND       PRES   REMARKS
KANSAS CTY INT MOSUNNY   68  31  25 SE5       30.02F
KANSAS C DTWN  SUNNY     69  32  25 SE3       30.00F
LEE`S SUMMIT   SUNNY     68  33  27 E6        30.02F
ST JOSEPH      SUNNY     68  32  26 VRB6      30.02F
CHILLICOTHE      N/A     68  35  29 N5        30.04S
KIRKSVILLE     SUNNY     64  32  30 NE5       30.03F

$$
MOZ066>068-077>081-088>096-101>105-230000-
...SOUTHWEST MISSOURI...

CITY           SKY/WX    TMP DP  RH WIND       PRES   REMARKS
SPRINGFIELD    SUNNY     70  38  31 N9        30.00F
JOPLIN         SUNNY     69  35  28 N5        30.01F

$$
MOZ032>034-039>042-045>050-055>058-069>072-230000-
...CENTRAL MISSOURI...

CITY           SKY/WX    TMP DP  RH WIND       PRES   REMARKS
COLUMBIA       SUNNY     65  37  35 N9        30.01F
JEFFERSON CITY SUNNY     69  28  21 N10       30.00F
ROLLA          SUNNY     66  31  27 NW8       29.99F
SEDALIA        SUNNY     69  32  25 N5        30.02F
OSAGE BEACH    SUNNY     66  34  30 NE7       30.02F

$$
MOZ051-052-059>065-230000-
...EAST CENTRAL MISSOURI...

CITY           SKY/WX    TMP DP  RH WIND       PRES   REMARKS
ST LOUIS INTL  MOSUNNY   67  33  28 NW13      29.99
SPIRIT OF STL  MOSUNNY   67  33  28 N7        29.98F
ST CHARLES     SUNNY     67  33  28 N10       29.98S

$$
MOZ072>076-082>087-097>100-106>115-230000-
...SOUTH CENTRAL AND SOUTHEAST MISSOURI...

CITY           SKY/WX    TMP DP  RH WIND       PRES   REMARKS
CAPE GIRARDEAU SUNNY     70  39  32 N15       29.95S
FARMINGTON     SUNNY     68  34  28 N10G17    29.99F
POPLAR BLUFF   SUNNY     75  37  25 NE10      29.91F
WEST PLAINS    SUNNY     72  34  24 N8        29.97F

$$



USA.gov is the U.S. government's official web portal to all federal, state and local government web resources and services.